Regional Weather Roundup
Issued by NWS

Home | Current Version | Previous Version | Graphics & Text | Print | Product List | Glossary On
Versions: 1 2 3 4 5 6 7 8 9 10 11 12 13 14 15 16 17 18 19 20 21 22 23 24 25 26 27 28 29 30 31 32 33 34 35 36 37 38 39 40 41 42 43 44 45 46 47 48 49
000
ASUS45 KCYS 290610
RWRWY

WYOMING REGIONAL WEATHER ROUNDUP
NATIONAL WEATHER SERVICE CHEYENNE WY
1200 AM MDT SAT AUG 29 2015

NOTE:  "FAIR" INDICATES FEW OR NO CLOUDS BELOW 12,000 FEET
WITH NO SIGNIFICANT WEATHER AND/OR OBSTRUCTIONS TO VISIBILITY.

WYZ001-290700-
YELLOWSTONE NATIONAL PARK

CITY           SKY/WX    TMP DP  RH WIND       PRES   REMARKS
LK YELLOWSTONE   N/A     44  35  70 NW3       30.37F
6HR MIN TEMP:  43; 6HR MAX TEMP:  71;

W YELLOWSTONE  NOT AVBL

$$
WYZ002>013-054>058-071-098>099-290700-
NORTHERN WYOMING

CITY           SKY/WX    TMP DP  RH WIND       PRES   REMARKS
JACKSON        FAIR      54  46  76 N5        30.27S
CODY           FAIR      66  39  37 SW6       30.13S
GREYBULL       FAIR      67  40  37 S6        30.06S
6HR MIN TEMP:  66; 6HR MAX TEMP:  89;

WORLAND        FAIR      63  46  54 W5        30.08S HAZE
6HR MIN TEMP:  63; 6HR MAX TEMP:  86;

SHERIDAN       FAIR      60  46  59 CALM      30.07F
6HR MIN TEMP:  58; 6HR MAX TEMP:  88;

BUFFALO        FAIR      68  40  35 W9        30.16F
6HR MIN TEMP:  67; 6HR MAX TEMP:  85;

GILLETTE       FAIR      61  44  53 NE5       30.12F
6HR MIN TEMP:  58; 6HR MAX TEMP:  86;

HULETT         FAIR      64  48  55 CALM      30.14S HAZE
NEWCASTLE      FAIR      61  41  48 CALM      30.15S

$$
WYZ014>020-022>026-101>103-290700-
CENTRAL WYOMING

CITY           SKY/WX    TMP DP  RH WIND       PRES   REMARKS
BIG PINEY      FAIR      53  33  46 N8        30.33S
6HR MIN TEMP:  50; 6HR MAX TEMP:  78; 6HR PCP: TRACE;

PINEDALE       FAIR      46  41  81 NW6       30.34S
DUBOIS         FAIR      54  34  47 NW6       30.33S
LANDER         FAIR      63  40  42 NE6       30.19R
6HR MIN TEMP:  63; 6HR MAX TEMP:  85;

RIVERTON       FAIR      61  37  41 CALM      30.19S
6HR MIN TEMP:  61; 6HR MAX TEMP:  84;

CASPER         FAIR      61  36  39 W6        30.21S
6HR MIN TEMP:  54; 6HR MAX TEMP:  82;

DOUGLAS        FAIR      62  40  44 SE8       30.21S
6HR MIN TEMP:  61; 6HR MAX TEMP:  85;


$$
WYZ021-027>030-104>119-290700-
SOUTHERN WYOMING

CITY           SKY/WX    TMP DP  RH WIND       PRES   REMARKS
EVANSTON       FAIR      62  37  39 SE8       30.32S
6HR MIN TEMP:  62; 6HR MAX TEMP:  81;

KEMMERER       FAIR      57  32  38 NW10      30.34S
FORT BRIDGER   CLEAR     72  30  21 CALM      30.34F
ROCK SPRINGS   FAIR      66  26  22 SW6       30.30S
6HR MIN TEMP:  65; 6HR MAX TEMP:  81;

DIXON          FAIR      59  37  43 E8        30.35S
RAWLINS        FAIR      53  39  59 NE8       30.33S
6HR MIN TEMP:  53; 6HR MAX TEMP:  79;

SARATOGA       FAIR      59  41  51 SE9       30.37R
LARAMIE        FAIR      54  40  59 S9        30.39S
6HR MIN TEMP:  51; 6HR MAX TEMP:  73; 6HR PCP: TRACE;

CHEYENNE       FAIR      56  44  64 W7        30.33R
6HR MIN TEMP:  55; 6HR MAX TEMP:  79;

TORRINGTON     FAIR      64  48  56 CALM      30.17S
6HR MIN TEMP:  61; 6HR MAX TEMP:  86;

PINE BLUFFS    FAIR      52  41  66 W8        30.27S

$$



USA.gov is the U.S. government's official web portal to all federal, state and local government web resources and services.